Location: Unspecified
(0.0000°N, 0.0000°E)
Time: 10:01:25
(UTC+00:00)

Envisat - Visible Passes

Search period start: 20 May 2018 00:00
Search period end: 30 May 2018 00:00
Orbit: 764 x 766 km, 98.2° (Epoch: 19 May)

Date Brightness Start Highest point End Pass type
(mag) Time Alt. Az. Time Alt. Az. Time Alt. Az.
20 May 3.4 19:23:31 40° E 19:23:57 41° ENE 19:28:41 10° N visible
20 May 5.9 21:03:43 10° W 21:03:43 10° W 21:04:05 10° W visible
21 May 4.6 18:46:19 14° E 18:47:21 14° ENE 18:50:01 10° NE visible
21 May 4.5 20:26:31 32° W 20:26:31 32° W 20:30:34 10° NW visible
22 May 2.8 19:49:18 84° SE 19:49:28 87° ENE 19:54:32 10° N visible
23 May 3.8 19:12:06 29° E 19:12:50 30° ENE 19:17:13 10° NNE visible
23 May 5.6 20:52:18 15° W 20:52:18 15° W 20:54:31 10° WNW visible
24 May 4.9 18:35:48 10° E 18:36:14 10° ENE 18:36:39 10° ENE visible
24 May 3.9 20:15:06 44° W 20:15:06 44° W 20:19:46 10° NNW visible
25 May 2.9 19:37:53 61° ESE 19:38:20 64° ENE 19:43:20 10° N visible
26 May 4.2 19:00:41 21° E 19:01:42 22° ENE 19:05:35 10° NNE visible
26 May 5.1 20:40:53 21° W 20:40:53 21° W 20:44:14 10° NW visible
27 May 3.3 20:03:41 60° WSW 20:03:50 61° WSW 20:08:49 10° NNW visible
28 May 3.2 19:26:28 43° ESE 19:27:13 46° ENE 19:32:03 10° N visible
29 May 4.5 18:49:16 15° E 18:50:36 16° ENE 18:53:42 10° NE visible
29 May 4.6 20:29:28 29° W 20:29:28 29° W 20:33:39 10° NW visible
